| time (UTC) | temp C | wind direction | speed KPH | gust KPH | rain 1hr cm | rain 24hr cm | rain mn cm | humidity % | barometer mb |
| 20260902124802 | 24 | 324 | 3.2 | 4.8 | 0.00 | 0.00 | 0.00 | 99 | 1013.4 |
| 20260902123602 | 24 | 208 | 0.0 | 0.0 | 0.00 | 0.00 | 0.00 | 99 | 1013.6 |
| 20260902122402 | 24 | 223 | 3.2 | 3.2 | 0.00 | 0.00 | 0.00 | 99 | 1013.7 |
| 20260902121204 | 24 | 289 | 1.6 | 3.2 | 0.00 | 0.00 | 0.00 | 99 | 1013.6 |
| 20260902120002 | 24 | 284 | 0.0 | 1.6 | 0.00 | 0.00 | 0.00 | 99 | 1013.9 |
| 20260902114803 | 25 | 190 | 1.6 | 3.2 | 0.00 | 0.00 | 0.00 | 99 | 1013.7 |
| 20260902113603 | 25 | 217 | 1.6 | 3.2 | 0.00 | 0.00 | 0.00 | 99 | 1013.8 |
| 20260902112402 | 25 | 262 | 1.6 | 3.2 | 0.00 | 0.00 | 0.00 | 99 | 1013.7 |
| 20260902111204 | 25 | 239 | 3.2 | 3.2 | 0.00 | 0.00 | 0.00 | 98 | 1013.9 |
| 20260902110007 | 25 | 241 | 3.2 | 4.8 | 0.00 | 0.00 | 0.00 | 98 | 1013.6 |
| 20260902104802 | 25 | 206 | 0.0 | 1.6 | 0.00 | 0.00 | 0.00 | 98 | 1013.7 |
| 20260902103604 | 25 | 306 | 3.2 | 3.2 | 0.00 | 0.00 | 0.00 | 97 | 1013.8 |
| 20260902102402 | 25 | 200 | 0.0 | 1.6 | 0.00 | 0.00 | 0.00 | 97 | 1013.6 |
| 20260902101203 | 25 | 217 | 1.6 | 1.6 | 0.00 | 0.00 | 0.00 | 96 | 1013.2 |
| 20260902100002 | 26 | 300 | 1.6 | 1.6 | 0.00 | 0.00 | 0.00 | 96 | 1013.2 |
| 20260902094802 | 26 | 206 | 1.6 | 3.2 | 0.00 | 0.00 | 0.00 | 95 | 1013.1 |
| 20260902093602 | 26 | 271 | 1.6 | 4.8 | 0.00 | 0.00 | 0.00 | 94 | 1012.9 |
| 20260902092402 | 26 | 226 | 4.8 | 8.0 | 0.00 | 0.00 | 0.00 | 94 | 1012.9 |
| 20260902091204 | 26 | 232 | 1.6 | 4.8 | 0.00 | 0.00 | 0.00 | 93 | 1012.9 |
| 20260902090002 | 27 | 237 | 1.6 | 3.2 | 0.00 | 0.00 | 0.00 | 92 | 1012.7 |
| 20260902084801 | 27 | 246 | 4.8 | 8.0 | 0.00 | 0.00 | 0.00 | 93 | 1012.8 |
| 20260902083602 | 27 | 251 | 4.8 | 8.0 | 0.00 | 0.00 | 0.00 | 91 | 1012.8 |
| 20260902082403 | 27 | 315 | 3.2 | 4.8 | 0.00 | 0.00 | 0.00 | 90 | 1012.7 |
| 20260902081203 | 28 | 264 | 3.2 | 4.8 | 0.00 | 0.00 | 0.00 | 87 | 1012.7 |
| 20260902080003 | 28 | 282 | 3.2 | 4.8 | 0.00 | 0.00 | 0.00 | 87 | 1012.8 |
| 20260902074802 | 28 | 309 | 1.6 | 3.2 | 0.00 | 0.00 | 0.00 | 84 | 1012.5 |
| 20260902073603 | 29 | 337 | 0.0 | 1.6 | 0.00 | 0.00 | 0.00 | 82 | 1012.4 |
| 20260902072403 | 28 | 328 | 0.0 | 1.6 | 0.00 | 0.00 | 0.00 | 83 | 1012.5 |
| 20260902071202 | 30 | 26 | 1.6 | 4.8 | 0.00 | 0.00 | 0.00 | 81 | 1012.4 |
| 20260902070004 | 29 | 347 | 1.6 | 3.2 | 0.00 | 0.00 | 0.00 | 80 | 1012.4 |
| 20260902064803 | 29 | 3 | 3.2 | 4.8 | 0.00 | 0.00 | 0.00 | 80 | 1012.2 |
| 20260902063603 | 30 | 348 | 3.2 | 8.0 | 0.00 | 0.00 | 0.00 | 77 | 1012.3 |
| 20260902062403 | 31 | 18 | 1.6 | 3.2 | 0.00 | 0.00 | 0.00 | 75 | 1012.3 |
| 20260902061202 | 30 | 15 | 3.2 | 8.0 | 0.00 | 0.00 | 0.00 | 76 | 1012.3 |
| 20260902060002 | 30 | 342 | 4.8 | 9.7 | 0.00 | 0.00 | 0.00 | 75 | 1012.2 |
| 20260902054803 | 31 | 10 | 8.0 | 12.9 | 0.00 | 0.00 | 0.00 | 73 | 1012.5 |
| 20260902053602 | 31 | 348 | 3.2 | 9.7 | 0.00 | 0.00 | 0.00 | 71 | 1012.1 |
| 20260902052402 | 31 | 61 | 3.2 | 4.8 | 0.00 | 0.00 | 0.00 | 70 | 1012.5 |
| 20260902051202 | 31 | 19 | 8.0 | 11.3 | 0.00 | 0.00 | 0.00 | 70 | 1012.8 |
| 20260902050002 | 31 | 340 | 8.0 | 9.7 | 0.00 | 0.00 | 0.00 | 71 | 1012.6 |
| 20260902044803 | 31 | 32 | 1.6 | 3.2 | 0.00 | 0.00 | 0.00 | 69 | 1013.1 |
| 20260902043603 | 31 | 345 | 3.2 | 4.8 | 0.00 | 0.00 | 0.00 | 70 | 1013.2 |
| 20260902042404 | 31 | 31 | 1.6 | 3.2 | 0.00 | 0.00 | 0.00 | 69 | 1013.0 |
| 20260902041203 | 30 | 72 | 4.8 | 9.7 | 0.00 | 0.00 | 0.00 | 71 | 1013.3 |
| 20260902040002 | 30 | 326 | 4.8 | 11.3 | 0.00 | 0.00 | 0.00 | 73 | 1013.2 |
| 20260902034803 | 30 | 75 | 4.8 | 9.7 | 0.00 | 0.00 | 0.00 | 71 | 1013.3 |
| 20260902033603 | 30 | 59 | 1.6 | 1.6 | 0.00 | 0.00 | 0.00 | 71 | 1013.8 |
| 20260902032403 | 30 | 24 | 4.8 | 9.7 | 0.00 | 0.00 | 0.00 | 73 | 1013.5 |
| 20260902031202 | 30 | 93 | 1.6 | 8.0 | 0.00 | 0.00 | 0.00 | 71 | 1013.4 |
| 20260902030003 | 30 | 50 | 1.6 | 3.2 | 0.00 | 0.00 | 0.00 | 73 | 1013.9 |
| 20260902024802 | 29 | 48 | 4.8 | 8.0 | 0.00 | 0.00 | 0.00 | 74 | 1013.9 |
| 20260902023602 | 30 | 41 | 3.2 | 9.7 | 0.00 | 0.00 | 0.00 | 75 | 1014.0 |
| 20260902022403 | 28 | 95 | 0.0 | 1.6 | 0.00 | 0.00 | 0.00 | 76 | 1014.1 |
| 20260902021202 | 27 | 323 | 1.6 | 4.8 | 0.00 | 0.00 | 0.00 | 80 | 1014.2 |
| 20260902020002 | 28 | 10 | 1.6 | 3.2 | 0.00 | 0.00 | 0.00 | 80 | 1014.3 |
| 20260902014803 | 27 | 30 | 4.8 | 8.0 | 0.00 | 0.00 | 0.00 | 83 | 1014.6 |
| 20260902013602 | 26 | 339 | 3.2 | 4.8 | 0.00 | 0.00 | 0.00 | 85 | 1014.5 |
| 20260902012403 | 27 | 54 | 1.6 | 3.2 | 0.00 | 0.00 | 0.00 | 81 | 1014.6 |
| 20260902011202 | 27 | 26 | 3.2 | 3.2 | 0.00 | 0.00 | 0.00 | 83 | 1014.6 |
| 20260902010003 | 26 | 13 | 0.0 | 1.6 | 0.00 | 0.00 | 0.00 | 83 | 1015.0 |
| 20260902004801 | 27 | 27 | 1.6 | 3.2 | 0.00 | 0.00 | 0.00 | 86 | 1015.1 |
| 20260902003603 | 26 | 114 | 0.0 | 0.0 | 0.00 | 0.00 | 0.00 | 89 | 1015.1 |
| 20260902002403 | 26 | 148 | 3.2 | 4.8 | 0.00 | 0.00 | 0.00 | 89 | 1014.8 |
| 20260902001203 | 25 | 123 | 0.0 | 1.6 | 0.00 | 0.00 | 0.00 | 92 | 1015.0 |
| 20260902000005 | 25 | 93 | 0.0 | 1.6 | 0.00 | 0.00 | 0.00 | 93 | 1015.0 |
| 20260901234803 | 24 | 70 | 1.6 | 3.2 | 0.00 | 0.00 | 0.00 | 94 | 1015.0 |
| 20260901233605 | 24 | 44 | 0.0 | 1.6 | 0.00 | 0.00 | 0.00 | 94 | 1014.9 |
| 20260901232404 | 23 | 97 | 0.0 | 0.0 | 0.00 | 0.00 | 0.00 | 94 | 1014.9 |
| 20260901231204 | 23 | 144 | 0.0 | 1.6 | 0.00 | 0.00 | 0.00 | 96 | 1014.9 |
| 20260901230004 | 23 | 203 | 3.2 | 4.8 | 0.00 | 0.00 | 0.00 | 97 | 1014.8 |
| 20260901224803 | 23 | 198 | 1.6 | 3.2 | 0.00 | 0.00 | 0.00 | 99 | 1014.9 |
| 20260901223604 | 22 | 287 | 0.0 | 0.0 | 0.00 | 0.00 | 0.00 | 99 | 1014.8 |
| 20260901222404 | 22 | 260 | 0.0 | 1.6 | 0.00 | 0.00 | 0.00 | 99 | 1014.9 |
| 20260901221204 | 22 | 194 | 0.0 | 1.6 | 0.00 | 0.00 | 0.00 | 99 | 1014.8 |
| 20260901220004 | 22 | 128 | 1.6 | 3.2 | 0.00 | 0.00 | 0.00 | 99 | 1014.6 |
| 20260901214803 | 22 | 270 | 1.6 | 3.2 | 0.00 | 0.00 | 0.00 | 99 | 1014.9 |
| 20260901213603 | 22 | 268 | 0.0 | 0.0 | 0.00 | 0.00 | 0.00 | 99 | 1015.1 |
| 20260901212404 | 22 | 268 | 0.0 | 0.0 | 0.00 | 0.00 | 0.00 | 99 | 1015.0 |
| 20260901211203 | 21 | 268 | 3.2 | 4.8 | 0.00 | 0.00 | 0.00 | 99 | 1015.1 |
| 20260901210002 | 21 | 258 | 1.6 | 1.6 | 0.00 | 0.03 | 0.00 | 99 | 1014.9 |
| 20260901204802 | 21 | 257 | 1.6 | 1.6 | 0.00 | 0.03 | 0.00 | 99 | 1015.1 |
| 20260901203602 | 21 | 257 | 0.0 | 0.0 | 0.00 | 0.03 | 0.00 | 99 | 1015.4 |
| 20260901202401 | 21 | 257 | 0.0 | 0.0 | 0.00 | 0.03 | 0.00 | 99 | 1015.1 |
| 20260901201202 | 21 | 258 | 1.6 | 1.6 | 0.00 | 0.05 | 0.00 | 99 | 1015.0 |
| 20260901200002 | 21 | 258 | 1.6 | 3.2 | 0.00 | 0.05 | 0.00 | 99 | 1015.3 |
| 20260901194803 | 21 | 254 | 1.6 | 3.2 | 0.00 | 0.05 | 0.00 | 99 | 1015.0 |
| 20260901193604 | 21 | 251 | 1.6 | 3.2 | 0.00 | 0.05 | 0.00 | 99 | 1015.2 |
| 20260901192402 | 21 | 229 | 1.6 | 3.2 | 0.00 | 0.05 | 0.00 | 99 | 1015.3 |
| 20260901191202 | 21 | 250 | 3.2 | 4.8 | 0.00 | 0.05 | 0.00 | 99 | 1015.1 |
| 20260901190003 | 21 | 244 | 0.0 | 1.6 | 0.00 | 0.05 | 0.00 | 99 | 1015.3 |
| 20260901184802 | 21 | 238 | 3.2 | 3.2 | 0.00 | 0.05 | 0.00 | 99 | 1015.6 |
| 20260901183604 | 21 | 240 | 0.0 | 1.6 | 0.00 | 0.05 | 0.00 | 99 | 1015.2 |
| 20260901182403 | 21 | 234 | 0.0 | 0.0 | 0.00 | 0.05 | 0.00 | 99 | 1015.6 |
| 20260901181202 | 21 | 234 | 0.0 | 1.6 | 0.00 | 0.05 | 0.00 | 99 | 1015.3 |
| 20260901180002 | 22 | 234 | 0.0 | 0.0 | 0.00 | 0.05 | 0.00 | 99 | 1015.5 |
| 20260901174803 | 22 | 234 | 0.0 | 0.0 | 0.00 | 0.05 | 0.00 | 99 | 1015.5 |
| 20260901173603 | 22 | 234 | 0.0 | 0.0 | 0.00 | 0.05 | 0.00 | 99 | 1015.4 |
| 20260901172402 | 22 | 234 | 1.6 | 1.6 | 0.00 | 0.05 | 0.00 | 99 | 1015.5 |
| 20260901171203 | 22 | 234 | 0.0 | 0.0 | 0.00 | 0.05 | 0.00 | 99 | 1015.6 |
| 20260901170002 | 22 | 234 | 0.0 | 0.0 | 0.00 | 0.05 | 0.00 | 99 | 1015.6 |
| 20260901164804 | 22 | 234 | 0.0 | 0.0 | 0.00 | 0.05 | 0.00 | 99 | 1015.8 |
| 20260901163603 | 22 | 234 | 0.0 | 0.0 | 0.00 | 0.05 | 0.00 | 99 | 1015.6 |
| 20260901162403 | 22 | 216 | 1.6 | 3.2 | 0.00 | 0.05 | 0.00 | 99 | 1015.8 |
| 20260901161203 | 22 | 245 | 1.6 | 3.2 | 0.00 | 0.05 | 0.00 | 99 | 1015.8 |
| 20260901160003 | 22 | 236 | 1.6 | 3.2 | 0.00 | 0.05 | 0.00 | 99 | 1016.2 |
| 20260901154803 | 22 | 251 | 1.6 | 3.2 | 0.00 | 0.05 | 0.00 | 99 | 1016.0 |
| 20260901153603 | 22 | 211 | 1.6 | 1.6 | 0.00 | 0.05 | 0.00 | 99 | 1016.2 |
| 20260901152401 | 22 | 252 | 0.0 | 1.6 | 0.00 | 0.05 | 0.00 | 99 | 1016.2 |
| 20260901151203 | 22 | 246 | 0.0 | 1.6 | 0.00 | 0.05 | 0.00 | 99 | 1016.3 |
| 20260901150003 | 22 | 245 | 0.0 | 1.6 | 0.00 | 0.05 | 0.05 | 99 | 1016.4 |
| 20260901144803 | 22 | 245 | 0.0 | 1.6 | 0.00 | 0.05 | 0.05 | 99 | 1016.5 |
| 20260901143602 | 22 | 244 | 1.6 | 1.6 | 0.00 | 0.05 | 0.05 | 99 | 1016.6 |
| 20260901142403 | 22 | 245 | 1.6 | 3.2 | 0.00 | 0.05 | 0.05 | 99 | 1016.4 |
| 20260901141201 | 22 | 244 | 1.6 | 1.6 | 0.00 | 0.05 | 0.05 | 99 | 1016.6 |
| 20260901140002 | 22 | 242 | 0.0 | 1.6 | 0.00 | 0.05 | 0.05 | 99 | 1016.6 |
| 20260901134802 | 22 | 217 | 1.6 | 3.2 | 0.00 | 0.05 | 0.05 | 99 | 1016.5 |
| 20260901133602 | 22 | 232 | 0.0 | 3.2 | 0.00 | 0.05 | 0.05 | 99 | 1016.7 |
| 20260901132403 | 22 | 219 | 1.6 | 3.2 | 0.00 | 0.05 | 0.05 | 99 | 1016.7 |
| 20260901131203 | 22 | 240 | 1.6 | 3.2 | 0.00 | 0.05 | 0.05 | 99 | 1016.6 |
| 20260901130004 | 22 | 240 | 3.2 | 3.2 | 0.00 | 0.05 | 0.05 | 99 | 1016.5 |